Location: North Evanston
(42.0634°N, 87.6976°W)
Time: 20:26:41
(UTC+00:00)

Transit 2A - Pass Details

Date: 12 May 2026
Orbit: 595 x 948 km, 66.7° (Epoch: 9 June)

Event Time Altitude Azimuth Distance (km) Brightness Sun altitude
Rises 23:50:42 0° 256° (WSW) 3,574 10.7 11.5°
Reaches altitude 10° 23:54:05 10° 274° (W) 2,595 11.0 10.9°
Maximum altitude 23:58:17 19° 318° (NW) 1,959 9.3 10.2°
Drops below altitude 10° 00:02:18 10° 3° (N) 2,461 8.8 9.5°
Sets 00:05:25 0° 21° (NNE) 3,328 9.3 8.9°
